OneWeb SL0614

operational
NORAD ID: 55156 Int'l Des: 2023-004 Owner: ONEWEBN Country: UK Constellation: oneweb
LEOCIRCULARPOLARONEWEB_TYPE

OneWeb SL0614について

説明を読み込み中...

リアルタイム位置

3D地球を読み込み中...

次回通過

高度履歴

Altitude vs Time

uPlot chart will show altitude changes over time

軌道要素

1 55156U 23004S 26036.92473423 .00000348 00000-0 94613-3 0 9993
2 55156 87.8828 47.1973 0002002 91.3202 268.8155 13.11418482148637
Epoch: Feb 5, 2026 • Age: 7 hours

現在のステータス

高度 1229.1 km
速度 7.24 km/s
衛星直下点 -28.69°S, 170.97°W
打ち上げ日 Jan 10, 2023
運用期間 3 years
タイプ internet

技術仕様

分類 Payload
質量 148.00 kg
乾燥質量 140.00 kg
総質量 148.00 kg
長さ 1.30 m
直径 1.00 m
スパン 5.00 m
形状 Trapezoid+2 pan
製造者 ONEWUS
バスタイプ ARROW
フェーズステータス In Orbit
所有者/国 ONEWEBN/UK

大規模コンステレーション

Loading constellations...